Weather in Fort Worth

United States     32°45′37″N   97°21′01″W
temp.,
°C
wind,
m/s
gust,
m/s
humid.,
%
clouds,
%
prec.,
mm/h
press.,
hPa
HPBL,
m
16 september, thu
thu1601:00+28ene14531 0.0 1012437
04:00+26sse23610 0.0 1012227
07:00+25se12670 0.0 1013228
10:00+27e35583 0.0 1014930
13:00+31e34435 0.0 10121703
16:00+33e34366 0.0 10102149
19:00+32e343547 0.0 10102124
22:00+31ese2539100 0.0 1011771
17 september, fri
fri1701:00+27se48570 0.0 1012532
04:00+25sse36650 0.0 1012341
07:00+24s22710 0.0 1013205
10:00+28sse22580 0.0 1015589
13:00+33ese11390 0.0 10141565
16:00+35ene33310 0.0 10122312
19:00+34ne23320 0.0 10121942
22:00+32ne24370 0.0 1014146
18 september, sat
sat1801:00+29se35440 0.0 1014246
04:00+27se35570 0.0 1015243
07:00+26se22610 0.0 1016195
10:00+29e22500 0.0 1017653
13:00+34ne34360 0.0 10162165
16:00+35nne44290 0.0 10132896
19:00+34nne34290 0.0 10121319
22:00+31se46443 0.0 1014441
19 september, sun
sun1901:00+29se36580 0.1 1014456
04:00+27sse23640 0.0 1013243
07:00+26se11660 0.0 1013184
10:00+29e22560 0.0 1014770
13:00+34ne22392 0.0 10131939
16:00+35e113396 0.1 10102519
19:00+33se343999 0.1 1009797
22:00+30se59510 0.0 1011469
20 september, mon
mon2001:00+28s510570 0.0 1011389
04:00+26s411610 0.0 1010373
07:00+25s411680 0.0 1011358
10:00+29ssw59540 0.0 1012668
13:00+35ssw56340 0.0 10101679
16:00+38s552712 0.0 10082541
19:00+36sse573143 0.0 10081321
22:00+32s61338100 0.0 1010565